Find Starlink 32552

NORAD ID: 62174 Int'l Des: 2024-225 Owner: SPXS Country: US Constellation: starlink operational
LEOCIRCULAR

Live Position

Loading 3D Globe...

About Starlink 32552

Description loading...

Upcoming Passes

Passes for default location (London). Set your location on the main map for personalized predictions.

Altitude History

Loading altitude history...

Two-Line Element Set

1 62174U 24225M 26126.14078448 .00003358 00000-0 28900-3 0 9999
2 62174 70.0017 19.4853 0002700 263.7422 96.3429 14.98340228 78483
Epoch: May 6, 2026 • Age: 6 hours

Current Status

Altitude 584.0 km
Velocity 7.57 km/s
Sub-Earth Point -35.86°S, 4.85°W
Launch Date Nov 30, 2024
Age 1.4 years
Type internet

Technical Details

Classification Payload
Mass 730.00 kg
Dry Mass 700.00 kg
Total Mass 730.00 kg
Length 0.30 m
Diameter 4.10 m
Span 29.00 m
Shape Box + pan
Manufacturer SPXS
Bus Type Starlink V2M
Phase Status In Orbit
Owner/State SPXS/US

Most Searched